This is the latest recevied weather packets stored in our database for station/object VA6GSB-13. If no packets are shown the sender has not sent any weather packets the latest 10 day(s).
| Time | Temp. | Humidity | Pressure | Rain* | Wind** | Luminosity | Snow |
|---|---|---|---|---|---|---|---|
| 1787407463 | 12.78° C | 87% | 1016.4 hPa | 0 mm | - | 140 W/m² | - |
| 1787407164 | 12.78° C | 87% | 1016.4 hPa | 0 mm | - | 134 W/m² | - |
| 1787406864 | 12.22° C | 87% | 1016.5 hPa | 0 mm | - | 132 W/m² | - |
| 1787406564 | 12.22° C | 87% | 1016.5 hPa | 0 mm | - | 122 W/m² | - |
| 1787406264 | 12.22° C | 87% | 1016.5 hPa | 0 mm | - | 109 W/m² | - |
| 1787405963 | 12.22° C | 88% | 1016.5 hPa | 0 mm | - | 101 W/m² | - |
| 1787405664 | 11.67° C | 89% | 1016.5 hPa | 0 mm | - | 94 W/m² | - |
| 1787405364 | 11.67° C | 89% | 1016.6 hPa | 0 mm | - | 81 W/m² | - |
| 1787405064 | 11.67° C | 89% | 1016.7 hPa | 0 mm | - | 69 W/m² | - |
| 1787404764 | 11.67° C | 89% | 1016.7 hPa | 0 mm | - | 59 W/m² | - |
| 1787404464 | 11.11° C | 89% | 1016.8 hPa | 0 mm | - | 48 W/m² | - |
| 1787404163 | 11.11° C | 90% | 1016.7 hPa | 0 mm | - | 38 W/m² | - |
| 1787403863 | 11.11° C | 90% | 1016.7 hPa | 0 mm | - | 33 W/m² | - |
| 1787403639 | 11.11° C | 91% | 1017 hPa | 0 mm | - | 29 W/m² | - |
| 1787403564 | 11.11° C | 91% | 1016.8 hPa | 0 mm | - | 27 W/m² | - |
| 1787403263 | 10.56° C | 91% | 1016.8 hPa | 0 mm | - | 23 W/m² | - |
| 1787403039 | 10.56° C | 91% | 1017 hPa | 0 mm | - | 19 W/m² | - |
| 1787402739 | 10.56° C | 92% | 1017 hPa | 0 mm | - | 16 W/m² | - |
| 1787402664 | 10.56° C | 92% | 1016.8 hPa | 0 mm | - | 15 W/m² | - |
| 1787402363 | 10.56° C | 92% | 1016.8 hPa | 0 mm | - | 11 W/m² | - |
| 1787402063 | 10.56° C | 92% | 1016.9 hPa | 0 mm | - | 9 W/m² | - |
| 1787401839 | 10.56° C | 91% | 1017 hPa | 0 mm | - | 7 W/m² | - |
| 1787401764 | 10.56° C | 91% | 1016.9 hPa | 0 mm | - | 6 W/m² | - |
| 1787401540 | 10.56° C | 91% | 1017 hPa | 0 mm | - | 5 W/m² | - |
| 1787401464 | 10.56° C | 91% | 1016.9 hPa | 0 mm | - | 5 W/m² | - |
* Rain latest hour (hover to see other rain measurements)
** Current wind speed in m/s (hover to see current wind gust speed)